Regional Weather Roundup
Issued by NWS

Home | Current Version | Previous Version | Text Only | Print | Product List | Glossary Off
Versions: 1 2 3 4 5 6 7 8 9 10 11 12 13 14 15 16 17 18 19 20 21 22 23 24 25 26 27 28 29 30 31 32 33 34 35 36 37 38 39 40 41 42 43 44 45 46 47 48 49 50

000
ASUS43 KMKX 251711
RWRWI

WISCONSIN REGIONAL WEATHER ROUNDUP
NATIONAL WEATHER SERVICE MILWAUKEE/SULLIVAN WI
1200 PM CDT SAT APR 25 2015

NOTE: "FAIR" INDICATES FEW OR NO CLOUDS BELOW 12,000 FEET WITH NO
SIGNIFICANT WEATHER AND/OR OBSTRUCTIONS TO VISIBILITY.

WIZ001-002-006>008-014>016-023>028-251800-
NORTHWEST WISCONSIN

CITY           SKY/WX    TMP DP  RH WIND       PRES   REMARKS
SUPERIOR ARPT  CLOUDY    38  31  74 NE16G25   30.01S WCI  29
ASHLAND        SUNNY     46  30  53 N17       29.99S
HAYWARD        SUNNY     53  19  26 E14G22    29.92S
SIREN          PTSUNNY   55  24  29 E9        29.90F
CUMBERLAND     SUNNY     50  21  32 E8G18     29.89F
RICE LAKE      SUNNY     55  16  22 E9G17     29.91S
CHETEK         SUNNY     53  21  28 E9        29.90S
LADYSMITH      SUNNY     53  16  22 E13       29.92S
EAU CLAIRE     MOSUNNY   52  25  35 NE20      29.87S
MENOMONIE      SUNNY     53  31  42 NE13      29.88S
NEW RICHMOND   MOSUNNY   53  30  42 E10G17    29.88F
OSCEOLA        MOSUNNY   54  31  42 NE14G22   29.91F
$$

WIZ003>005-009-010-017-018-251800-
NORTH CENTRAL WISCONSIN

CITY           SKY/WX    TMP DP  RH WIND       PRES   REMARKS
MANITOWISH WTR SUNNY     50  20  30 E10G17    29.92F
ARBOR VITAE    SUNNY     52  20  29 SE6       29.91F
WOODRUFF       SUNNY     52  20  29 SE6       29.91F
RHINELANDER    CLOUDY    48  20  32 E13G20    29.93F
EAGLE RIVER    SUNNY     50  16  25 E10       29.92F
LAND O LAKES   SUNNY     49  16  27 CALM      29.94S
PHILLIPS       SUNNY     51  20  30 NE13      29.90F
TOMAHAWK       CLOUDY    50  18  28 E3        29.92S
MEDFORD        MOSUNNY   50  20  30 E9G18     29.89S
MERRILL        MOSUNNY   53  20  28 E13G18    29.90S
$$

WIZ029-030-035-036-043>047-251800-
CENTRAL WISCONSIN

CITY           SKY/WX    TMP DP  RH WIND       PRES   REMARKS
WAUSAU         PTSUNNY   51  19  28 E10G22    29.89F
MOSINEE        MOSUNNY   48  19  32 E12G24    29.90F
MARSHFIELD     CLOUDY    51  18  27 E14       29.87F
STEVENS POINT  CLOUDY    50  18  28 E17G23    29.88F
WAUPACA        CLOUDY    52  14  22 NE14G25   29.90S
WAUTOMA        MOSUNNY   51  20  29 E14G26    29.87F
WISC RAPIDS    PTSUNNY   52  18  26 E20G25    29.89F
CAMP DOUGLAS   PTSUNNY   48  36  61 E13       29.85F
$$

WIZ011>013-019>022-031-037>040-048>050-251800-
NORTHEAST WISCONSIN

CITY           SKY/WX    TMP DP  RH WIND       PRES   REMARKS
ANTIGO         MOSUNNY   49  22  33 E10G16    29.91F
SHAWANO        CLOUDY    51  24  35 E14G20    29.93F
OCONTO         CLOUDY    45  16  31 NE12G17   29.94F
STURGEON BAY   CLOUDY    43  19  39 E10       29.97F
GREEN BAY      CLOUDY    48  27  44 NE18      29.93S
MANITOWOC      CLOUDY    42  26  53 NE12G21   29.91F
APPLETON       PTSUNNY   46  12  25 NE17G23   29.90S
CLINTONVILLE   CLOUDY    48  18  29 NE15G21   29.91S
OSHKOSH        MOSUNNY   49  27  42 NE16G25   29.88S
$$

WIZ032>034-041-042-053>061-251800-
SOUTHWEST WISCONSIN

CITY           SKY/WX    TMP DP  RH WIND       PRES   REMARKS
LA CROSSE      CLOUDY    50  37  61 E12       29.84F
SPARTA         CLOUDY    49  34  58 E14G21    29.86F
VIROQUA        CLOUDY    48  38  70 NE16      29.81F
BOSCOBEL       CLOUDY    50  37  61 E13G21    29.81S
PRAIRIE DU CHI CLOUDY    48  36  62 NE13G23   29.78S
PLATTEVILLE    CLOUDY    46  38  74 NE20      29.77S
$$

WIZ056-057-062-063-064-067-068-251800-
SOUTH CENTRAL WISCONSIN

CITY           SKY/WX    TMP DP  RH WIND       PRES   REMARKS
REEDSBURG      CLOUDY    46  36  67 NE13      29.84S
BARABOO/DELLS  CLOUDY    47  35  63 E15       29.84S
LONE ROCK      CLOUDY    48  38  68 E10       29.82S
MINERAL POINT  CLOUDY    46  37  71 NE21      29.77S
MADISON        CLOUDY    48  37  65 NE18      29.83R
MIDDLETON      CLOUDY    48  38  68 NE15      29.83R
WATERTOWN      CLOUDY    46  37  70 NE15      29.82S
MONROE         LGT RAIN  45  39  81 NE15G21   29.78R
JANESVILLE     DRIZZLE   48  39  71 E16       29.78S
$$

WIZ051-052-058>065-066-070>072-251800-
SOUTHEAST WISCONSIN

CITY           SKY/WX    TMP DP  RH WIND       PRES   REMARKS
MILWAUKEE      CLOUDY    41  33  73 NE15      29.85S
WAUKESHA       CLOUDY    43  36  75 NE20G25   29.84S
MILWAUKEE/TIMM CLOUDY    43  32  65 NE14      29.85F
RACINE         CLOUDY    42  36  79 NE12      29.84S
BURLINGTON     CLOUDY    44  37  76 E14G20    29.80F
KENOSHA        CLOUDY    45  39  79 E17       29.81R
FOND DU LAC    CLOUDY    50  27  40 E18       29.87F
SHEBOYGAN      CLOUDY    44  30  57 NE18      29.88F
WEST BEND      CLOUDY    45  32  61 NE13G18   29.85S
JUNEAU         CLOUDY    46  34  63 NE16      29.85S
$$

LSZ147-162-251800-
LAKE SUPERIOR

STATION/POSITION TIME  TEMP    WIND        PRES    WAVE
                       AIR SEA DIR/SP/G            HT/PER
                 (UTC) (F)     (DEG/KT/KT) (MB)    (FT/S)
W MID LAKE BUOY  1650   34 34   50/ 17/ 21 1018.0F   3/ 4
DEVILS ISLAND    1700   35      60/ 18/ 20 1017.6R
PORT WING        1600   38      40/ 21/ 23 1015.9S
SAXON HARBOR     1600   37      40/ 10/ 12 1015.2
$$

LMZ867-665-643>646-251800-
LAKE MICHIGAN

STATION/POSITION TIME  TEMP    WIND        PRES    WAVE
                       AIR SEA DIR/SP/G            HT/PER
                 (UTC) (F)     (DEG/KT/KT) (MB)    (FT/S)
CHAMBERS ISLAND  1600   36      10/ 17/ 19 1015.2F
NORTHPORT PIER   1600   37      40/ 10/ 12 1015.6F
SISTER BAY       1617   45      20/  6/ 12   N/A
KEWAUNEE LAKESHO 1600   38      40/ 16/ 18 1013.1F
SHEBOYGAN LAKESH 1700   38      20/ 16/ 18 1012.9F
PORT WASHINGTON  1600   41      40/ 14/ 17 1012.5
MILWAUKEE LAKESH 1600   39      30/ 16/ 18   N/A
KENOSHA   LAKESH 1700   40      70/ 18/ 20 1009.1F
$$

TC  - TEMPERATURE IN CELSIUS
VSB - VISIBILITY IN STATUTE MILES
WCI - WIND CHILL INDEX
HX  - HEAT INDEX



USA.gov is the U.S. government's official web portal to all federal, state and local government web resources and services.